Location: Newark
(50.8311°N, 16.5142°E)
Time: 19:33:19
(UTC+00:00)

ISS - Visible Passes

Search period start: 22 October 2019 00:00
Search period end: 01 November 2019 00:00
Orbit: 411 x 421 km, 51.6° (Epoch: 23 October)

Date Brightness Start Highest point End Pass type
(mag) Time Alt. Az. Time Alt. Az. Time Alt. Az.
24 Oct -0.9 04:50:43 10° S 04:53:03 18° SE 04:55:24 10° E visible
25 Oct -0.7 04:03:25 10° SSE 04:04:43 12° SE 04:06:01 10° ESE visible
26 Oct -2.1 04:49:16 10° SW 04:52:21 34° SSE 04:55:27 10° E visible
27 Oct -1.6 04:01:08 10° SSW 04:03:54 24° SE 04:06:41 10° E visible
28 Oct -1.3 03:14:47 16° SSE 03:15:29 17° SE 03:17:43 10° E visible
28 Oct -3.3 04:48:25 10° WSW 04:51:45 62° SSE 04:55:05 10° ENE visible
29 Oct -2.9 04:01:27 23° SW 04:03:12 45° SSE 04:06:27 10° E visible
30 Oct -2.2 03:15:04 31° SE 03:15:04 31° SE 03:17:45 10° E visible
30 Oct -3.8 04:47:58 11° WSW 04:51:13 89° NNW 04:54:37 10° ENE visible
31 Oct -0.4 02:28:35 12° E 02:28:35 12° E 02:28:55 10° E visible
31 Oct -3.7 04:01:29 39° WSW 04:02:36 76° SSE 04:05:59 10° ENE visible
